{"data":{"norad_id":63859,"epoch":"2026-05-24T22:52:43.392000Z","epoch_age_seconds":89832,"freshness":"FRESH","line1":"1 63859U 25093Z   26144.95328000  .00042875  00000+0  15557-2 0  9994","line2":"2 63859  43.0021   7.3382 0001446 280.1706  79.8982 15.27638928 59610","mean_motion":15.27638928,"eccentricity":0.0001446,"inclination_deg":43.0021,"raan_deg":7.3382,"arg_perigee_deg":280.1706,"mean_anomaly_deg":79.8982,"bstar":0.0015557,"rev_number":5961,"period_min":94.263112415266,"perigee_km":481.88054808516,"apogee_km":483.86475207596,"semimajor_km":6861.0096500806,"source":"CELESTRAK","updated_at":"2026-05-25T13:38:20.166555Z"}}